Flag for Germany Weather past 2 weeks in Neu-Isenburg, Hesse, Germany

Now
68 °F

Passing clouds.


Feels Like: 68 °F
Forecast: 57 / 71 °F
Wind: 5 mph from Southwest

Location: Frankfurt / M-Flughafen

Current Time: Jun 2, 2015 at 11:52:15 PM

Latest Report: Jun 2, 2015 at 10:00 PM


Visibility: 37 mi

Pressure: 30.00 "Hg

Humidity: 54%

Dew point: 51 °F

Location of Neu-IsenburgLocation

Historic Weather in Neu-Isenburg — Graph

°F

Neu-Isenburg temperature yesterday

Maximum temperature yesterday: 65 °F (at 12:00 AM)
Minimum temperature yesterday: 51 °F (at 11:00 PM)
Average temperature yesterday: 58 °F

Past Weeks' High & Low Weather Summary

 TemperatureHumidityPressure
High77 °F (Jun 2, 7:00 PM)100% (Jun 2, 7:00 AM)30.35 "Hg (Jun 2, 7:00 AM)
Low39 °F (May 28, 3:00 AM)29% (May 22, 2:00 PM)29.67 "Hg (May 19, 3:00 AM)
Average57 °F64%30.04 "Hg
* Reported May 18 10:00 PM — Jun 2 10:00 PM, Neu-Isenburg, Weather by CustomWeather, © 2015

Note: Actual official high and low records may vary slightly from our data, if they occured in-between our weather recording intervals... More about our weather records

Advertising

Neu-Isenburg weather history for previous 24 hours

 ConditionsComfort  
Time TempWeatherWind HumidityBarometerVisibility
10:00 PM
Tue, Jun 2
68 °FPassing clouds.5 mph54%30.00 "Hg37 mi
9:00 PM73 °FPassing clouds.8 mph46%29.98 "Hg43 mi
8:00 PM76 °FPassing clouds.8 mph36%29.97 "Hg43 mi
7:00 PM77 °FScattered clouds.12 mph35%29.97 "Hg43 mi
6:00 PM77 °FPartly sunny.10 mph33%29.98 "Hg43 mi
4:00 PM76 °FPartly sunny.12 mph35%29.98 "Hg43 mi
3:00 PM73 °FScattered clouds.12 mph35%29.98 "Hg43 mi
2:00 PM70 °FOvercast.10 mph43%29.99 "Hg40 mi
1:00 PM67 °FOvercast.10 mph48%30.01 "Hg37 mi
12:00 PM66 °FOvercast.8 mph50%30.01 "Hg31 mi
11:00 AM62 °FLight rain. Overcast.9 mph76%30.01 "Hg25 mi
10:00 AM61 °FLow clouds.8 mph76%30.02 "Hg22 mi
9:00 AM57 °FLight rain. Low clouds.5 mph90%30.03 "Hg11 mi
8:00 AM53 °FLow clouds.2 mph97%30.01 "Hg9 mi
7:00 AM51 °FLow clouds.1 mph100%30.01 "Hg7 mi
4:00 AM47 °FPassing clouds.1 mph99%30.03 "Hg12 mi
3:00 AM48 °FFog.1 mph98%30.04 "Hg19 mi
2:00 AM49 °FPassing clouds.3 mph96%30.04 "Hg22 mi
1:00 AM49 °FPassing clouds.1 mph97%30.03 "Hg22 mi
12:00 AM51 °FPassing clouds.5 mph93%30.04 "Hg22 mi
11:00 PM
Mon, Jun 1
51 °FPassing clouds.2 mph92%30.03 "Hg22 mi
Weather by CustomWeather, © 2015

See weather overviewHow to use our weather pages